Flag for Rwanda Weather past 2 weeks in Butare, Rwanda

Now
64 °F

Passing clouds.


Feels Like: 64 °F
Forecast: 54 / 75 °F
Wind: No wind

Location: Kigali Airport

Current Time: Jun 3, 2015 at 1:57:51 AM

Latest Report: Jun 3, 2015 at 1:30 AM


Visibility: N/A

Pressure: 30.15 "Hg

Humidity: 100%

Dew point: 64 °F

Location of ButareLocation

Historic Weather in Butare — Graph

°F

Butare temperature yesterday

Maximum temperature yesterday: 79 °F (at 12:00 PM)
Minimum temperature yesterday: 64 °F (at 6:30 AM)
Average temperature yesterday: 70 °F

Past Weeks' High & Low Weather Summary

 TemperatureHumidityPressure
High82 °F (May 25, 3:00 PM)100% (May 19, 12:00 AM)30.27 "Hg (May 19, 12:00 AM)
Low63 °F (May 19, 6:00 AM)51% (May 24, 4:00 PM)30.04 "Hg (May 25, 6:00 PM)
Average71 °F81%30.15 "Hg
* Reported Midnight between May 18 and May 19 — Jun 3 12:30 AM, Butare, Weather by CustomWeather, © 2015

Note: Actual official high and low records may vary slightly from our data, if they occured in-between our weather recording intervals... More about our weather records

Advertising

Butare weather history for previous 24 hours

 ConditionsComfort  
Time TempWeatherWind HumidityBarometerVisibility
12:30 AM
Wed, Jun 3
64 °FPassing clouds.3 mph100%30.15 "HgN/A
11:30 PM
Tue, Jun 2
66 °FPartly cloudy.No wind100%30.18 "HgN/A
11:00 PM66 °FPartly cloudy.No wind100%30.18 "HgN/A
10:30 PM66 °FPassing clouds.5 mph100%30.18 "HgN/A
10:00 PM66 °FPassing clouds.3 mph100%30.21 "HgN/A
9:30 PM66 °FPassing clouds.3 mph100%30.18 "HgN/A
9:00 PM66 °FPassing clouds.No wind100%30.18 "HgN/A
8:30 PM68 °FPassing clouds.No wind94%30.18 "HgN/A
8:00 PM68 °FPassing clouds.No wind94%30.15 "HgN/A
7:30 PM68 °FPassing clouds.No wind94%30.15 "HgN/A
7:00 PM68 °FPassing clouds.3 mph88%30.15 "HgN/A
6:30 PM70 °FPassing clouds.No wind83%30.12 "HgN/A
5:30 PM72 °FScattered clouds.3 mph78%30.12 "HgN/A
5:00 PM72 °FScattered clouds.No wind78%30.09 "HgN/A
4:30 PM73 °FScattered clouds.No wind69%30.09 "HgN/A
4:00 PM73 °FScattered clouds.6 mph69%30.09 "HgN/A
3:30 PM73 °FPartly sunny.9 mph69%30.09 "HgN/A
3:00 PM75 °FBroken clouds.9 mph65%30.09 "HgN/A
2:30 PM75 °FScattered clouds.6 mph74%30.09 "HgN/A
2:00 PM77 °FScattered clouds.6 mph69%30.09 "HgN/A
1:30 PM77 °FPartly sunny.5 mph69%30.12 "HgN/A
1:00 PM77 °FPartly sunny.5 mph69%30.12 "HgN/A
12:30 PM77 °FPartly sunny.3 mph69%30.15 "HgN/A
12:00 PM79 °FScattered clouds.3 mph65%30.15 "HgN/A
11:30 AM77 °FScattered clouds.3 mph74%30.15 "HgN/A
11:00 AM75 °FScattered clouds.5 mph74%30.18 "HgN/A
10:30 AM77 °FScattered clouds.No wind74%30.18 "HgN/A
10:00 AM77 °FScattered clouds.No wind69%30.18 "HgN/A
9:30 AM75 °FScattered clouds.No wind74%30.18 "HgN/A
9:00 AM72 °FScattered clouds.No wind78%30.18 "HgN/A
8:30 AM72 °FScattered clouds.No wind83%30.18 "HgN/A
8:00 AM68 °FBroken clouds.3 mph94%30.18 "HgN/A
7:30 AM66 °FPartly sunny.No wind94%30.15 "HgN/A
7:00 AM66 °FPartly sunny.5 mph94%30.15 "HgN/A
6:30 AM64 °FPartly sunny.3 mph100%30.15 "HgN/A
5:30 AM66 °FPassing clouds.No wind100%30.12 "HgN/A
4:00 AM66 °FPassing clouds.No wind100%30.09 "HgN/A
3:30 AM66 °FPassing clouds.No wind100%30.09 "HgN/A
3:00 AM66 °FPassing clouds.No wind100%30.09 "HgN/A
2:00 AM66 °FPassing clouds.3 mph100%30.12 "HgN/A
1:30 AM66 °FPassing clouds.3 mph100%30.12 "HgN/A
1:00 AM66 °FPassing clouds.No wind100%30.12 "HgN/A
Weather by CustomWeather, © 2015

See weather overviewHow to use our weather pages